sat.trackr.live / text

‹ back to catalog

TRANSPORTER-16 OBJECT X

NORAD 68437 · 2026-067X

PAYLOAD ACTIVE UNKNOWN

§ Identity

Operator
Country
TBD
Launch date
2026-03-30
Launch site
AFWTR
Launch vehicle
Mass (kg)
RCS (m²)

External: N2YO · Heavens-Above · Gunter

§ Orbital elements

Epoch: 2026-05-25T03:02:03.532992Z

Period
94.80 min
Inclination
97.4490°
Eccentricity
0.0004767
Mean motion
15.18932262 rev/d
Perigee alt
505.8 km
Apogee alt
512.3 km
Semi-major
6,887.2 km
B*
6.4559e-4
RAAN
103.9262°
Arg perigee
108.4183°
Mean anomaly
251.7570°
Rev number
844

§ Raw data

TRANSPORTER-16 OBJECT X1 68437U 26067X   26145.12642978  .00013433  00000+0  64559-3 0  99912 68437  97.4490 103.9262 0004767 108.4183 251.7570 15.18932262  8447

JSON: /api/v1/satellites/68437 · /tle

For live sub-satellite position, see the globe view (requires WebGL).

§ Visibility from observer

Set your observer location to see the next 7 days of passes ≥ 10°. The values pass through the URL so the page stays shareable.

No JS? Fill the form by hand. The geolocation button needs JavaScript.